Time,TemperatureF,DewpointF,PressureIn,WindDirection,WindDirectionDegrees,WindSpeedMPH,WindSpeedGustMPH,Humidity,HourlyPrecipIn,Conditions,Clouds,dailyrainin,SoftwareType,DateUTC
2013-05-11 00:00:00,57.3,55.9,29.68,SSE,153,0.0,0.0,95,0.04,,---,0.00,VWS V14.01,2013-05-11 04:00:00,
2013-05-11 00:01:00,57.3,55.9,29.68,SSE,151,0.0,0.0,95,0.04,,---,0.00,VWS V14.01,2013-05-11 04:01:00,
2013-05-11 00:02:00,57.3,55.9,29.68,SE,143,0.0,0.0,95,0.04,,---,0.00,VWS V14.01,2013-05-11 04:02:00,
2013-05-11 00:07:00,57.3,55.9,29.68,SE,144,0.0,0.0,95,0.05,,---,0.01,VWS V14.01,2013-05-11 04:07:00,
2013-05-11 00:12:00,57.3,55.9,29.68,SSE,153,0.0,0.0,95,0.05,,---,0.01,VWS V14.01,2013-05-11 04:12:00,
2013-05-11 00:17:00,57.4,56.0,29.68,SSE,154,0.0,0.0,95,0.06,,---,0.02,VWS V14.01,2013-05-11 04:17:00,
2013-05-11 00:22:00,57.4,56.0,29.68,SSE,149,0.0,0.0,95,0.06,,---,0.02,VWS V14.01,2013-05-11 04:22:00,
2013-05-11 00:27:00,57.5,56.1,29.67,SSE,159,0.0,0.0,95,0.07,,---,0.03,VWS V14.01,2013-05-11 04:27:00,
2013-05-11 00:30:00,57.5,56.1,29.67,SE,144,0.0,0.0,95,0.07,,---,0.03,VWS V14.01,2013-05-11 04:30:00,
2013-05-11 00:32:00,57.5,56.1,29.67,SSE,163,0.0,0.0,95,0.05,,---,0.03,VWS V14.01,2013-05-11 04:32:00,
2013-05-11 00:37:00,57.5,56.1,29.67,SSE,155,0.0,0.0,95,0.05,,---,0.03,VWS V14.01,2013-05-11 04:37:00,
2013-05-11 00:44:00,57.5,56.1,29.67,South,174,0.0,0.0,95,0.06,,---,0.04,VWS V14.01,2013-05-11 04:44:00,
2013-05-11 00:50:00,57.5,56.1,29.67,South,187,0.0,0.0,95,0.06,,---,0.04,VWS V14.01,2013-05-11 04:50:00,
2013-05-11 00:55:00,57.7,56.3,29.67,South,188,0.0,0.0,95,0.06,,---,0.04,VWS V14.01,2013-05-11 04:55:00,
2013-05-11 01:00:00,57.7,56.0,29.66,South,184,0.0,0.0,94,0.07,,---,0.05,VWS V14.01,2013-05-11 05:00:00,
2013-05-11 01:05:00,57.8,56.1,29.66,SW,217,0.0,0.0,94,0.05,,---,0.05,VWS V14.01,2013-05-11 05:05:00,
2013-05-11 01:15:00,57.8,55.8,29.66,SSW,201,0.0,0.0,93,0.06,,---,0.06,VWS V14.01,2013-05-11 05:15:00,
2013-05-11 01:21:00,57.8,55.8,29.66,SSW,207,0.0,0.0,93,0.06,,---,0.06,VWS V14.01,2013-05-11 05:21:00,
2013-05-11 01:26:00,57.8,55.8,29.66,SSW,211,0.0,0.0,93,0.06,,---,0.06,VWS V14.01,2013-05-11 05:26:00,
2013-05-11 01:30:00,57.8,55.8,29.66,SSW,212,0.0,0.0,93,0.06,,---,0.06,VWS V14.01,2013-05-11 05:30:00,
2013-05-11 01:31:00,57.8,55.8,29.66,SSW,209,0.0,0.0,93,0.03,,---,0.06,VWS V14.01,2013-05-11 05:31:00,
2013-05-11 01:43:00,57.8,55.8,29.65,SSW,212,0.0,0.0,93,0.04,,---,0.07,VWS V14.01,2013-05-11 05:43:00,
2013-05-11 01:48:00,57.7,55.7,29.65,South,186,0.0,0.0,93,0.04,,---,0.07,VWS V14.01,2013-05-11 05:48:00,
2013-05-11 01:53:00,57.7,55.7,29.65,SSW,208,0.0,0.0,93,0.04,,---,0.07,VWS V14.01,2013-05-11 05:53:00,
2013-05-11 01:58:00,57.8,55.5,29.65,SW,216,0.0,0.0,92,0.04,,---,0.07,VWS V14.01,2013-05-11 05:58:00,
2013-05-11 02:00:00,57.7,55.4,29.65,SSW,208,0.0,0.0,92,0.04,,---,0.07,VWS V14.01,2013-05-11 06:00:00,
2013-05-11 02:03:00,57.8,55.5,29.65,SW,214,0.0,0.0,92,0.02,,---,0.07,VWS V14.01,2013-05-11 06:03:00,
2013-05-11 02:08:00,57.8,55.5,29.64,SSW,197,0.0,0.0,92,0.02,,---,0.07,VWS V14.01,2013-05-11 06:08:00,
2013-05-11 02:13:00,57.8,55.5,29.64,SSW,211,0.0,0.0,92,0.02,,---,0.07,VWS V14.01,2013-05-11 06:13:00,
2013-05-11 02:18:00,57.8,55.5,29.64,SW,229,0.0,0.0,92,0.02,,---,0.07,VWS V14.01,2013-05-11 06:18:00,
2013-05-11 02:23:00,58.0,55.7,29.64,SW,221,0.0,0.0,92,0.02,,---,0.07,VWS V14.01,2013-05-11 06:23:00,
2013-05-11 02:29:00,58.1,55.8,29.64,SSW,209,0.0,0.0,92,0.02,,---,0.07,VWS V14.01,2013-05-11 06:29:00,
2013-05-11 02:30:00,58.1,55.8,29.64,SSW,201,0.0,0.0,92,0.02,,---,0.07,VWS V14.01,2013-05-11 06:30:00,
2013-05-11 02:34:00,58.1,55.5,29.64,SW,217,0.0,0.0,91,0.01,,---,0.07,VWS V14.01,2013-05-11 06:34:00,
2013-05-11 02:39:00,58.0,55.4,29.64,WSW,244,0.0,0.0,91,0.01,,---,0.07,VWS V14.01,2013-05-11 06:39:00,
2013-05-11 02:44:00,58.0,55.4,29.64,SW,231,0.0,0.0,91,0.01,,---,0.07,VWS V14.01,2013-05-11 06:44:00,
2013-05-11 02:49:00,58.0,55.7,29.64,SSW,204,0.0,0.0,92,0.01,,---,0.07,VWS V14.01,2013-05-11 06:49:00,
2013-05-11 02:54:00,58.1,55.8,29.64,SSW,211,0.0,0.0,92,0.01,,---,0.07,VWS V14.01,2013-05-11 06:54:00,
2013-05-11 02:59:00,58.1,55.8,29.64,SW,225,0.0,0.0,92,0.01,,---,0.07,VWS V14.01,2013-05-11 06:59:00,
2013-05-11 03:00:00,58.2,55.6,29.64,SSW,207,0.0,0.0,91,0.01,,---,0.07,VWS V14.01,2013-05-11 07:00:00,
2013-05-11 03:04:00,58.2,55.6,29.64,SSW,197,0.0,0.0,91,0.00,,---,0.07,VWS V14.01,2013-05-11 07:04:00,
2013-05-11 03:09:00,58.2,55.6,29.63,SSW,213,0.0,0.0,91,0.00,,---,0.07,VWS V14.01,2013-05-11 07:09:00,
2013-05-11 03:14:00,58.3,55.7,29.63,SSW,201,0.0,0.0,91,0.00,,---,0.07,VWS V14.01,2013-05-11 07:14:00,
2013-05-11 03:19:00,58.3,55.7,29.63,SSW,200,0.0,0.0,91,0.00,,---,0.07,VWS V14.01,2013-05-11 07:19:00,
2013-05-11 03:24:00,58.3,55.7,29.63,South,187,0.0,0.0,91,0.00,,---,0.07,VWS V14.01,2013-05-11 07:24:00,
2013-05-11 03:29:00,58.3,55.7,29.63,SSW,197,0.0,0.0,91,0.00,,---,0.07,VWS V14.01,2013-05-11 07:29:00,
2013-05-11 03:30:00,58.4,55.8,29.63,SSW,198,0.0,0.0,91,0.00,,---,0.07,VWS V14.01,2013-05-11 07:30:00,
2013-05-11 03:34:00,58.4,55.8,29.63,South,182,0.0,0.0,91,0.00,,---,0.07,VWS V14.01,2013-05-11 07:34:00,
2013-05-11 03:39:00,58.5,55.9,29.63,SSW,198,0.0,0.0,91,0.00,,---,0.07,VWS V14.01,2013-05-11 07:39:00,
2013-05-11 03:44:00,58.5,55.9,29.63,SSW,202,0.0,0.0,91,0.00,,---,0.07,VWS V14.01,2013-05-11 07:44:00,
2013-05-11 03:49:00,58.5,55.6,29.63,SSW,207,0.0,0.0,90,0.00,,---,0.07,VWS V14.01,2013-05-11 07:49:00,
2013-05-11 03:54:00,58.5,55.6,29.63,SSW,198,0.0,0.0,90,0.00,,---,0.07,VWS V14.01,2013-05-11 07:54:00,
2013-05-11 03:59:00,58.6,55.7,29.63,SSW,192,0.0,0.0,90,0.00,,---,0.07,VWS V14.01,2013-05-11 07:59:00,
2013-05-11 04:00:00,58.6,55.7,29.63,SSW,193,0.0,0.0,90,0.00,,---,0.07,VWS V14.01,2013-05-11 08:00:00,
2013-05-11 04:04:00,58.6,55.7,29.63,SSW,202,0.0,0.0,90,0.00,,---,0.07,VWS V14.01,2013-05-11 08:04:00,
2013-05-11 04:09:00,58.7,55.8,29.63,SW,219,0.0,0.0,90,0.00,,---,0.07,VWS V14.01,2013-05-11 08:09:00,
2013-05-11 04:14:00,58.9,56.0,29.62,SSE,150,0.0,0.0,90,0.00,,---,0.07,VWS V14.01,2013-05-11 08:14:00,
2013-05-11 04:20:00,58.9,55.7,29.63,South,183,0.0,0.0,89,0.00,,---,0.07,VWS V14.01,2013-05-11 08:20:00,
2013-05-11 04:25:00,59.0,55.8,29.63,SSE,148,0.0,0.0,89,0.00,,---,0.07,VWS V14.01,2013-05-11 08:25:00,
2013-05-11 04:30:00,59.0,55.8,29.62,South,169,0.0,0.0,89,0.00,,---,0.07,VWS V14.01,2013-05-11 08:30:00,
2013-05-11 04:35:00,59.0,55.8,29.61,SSW,194,0.0,0.0,89,0.00,,---,0.07,VWS V14.01,2013-05-11 08:35:00,
2013-05-11 04:40:00,59.1,55.5,29.61,SSE,156,0.0,0.0,88,0.00,,---,0.07,VWS V14.01,2013-05-11 08:40:00,
2013-05-11 04:45:00,58.9,55.7,29.62,SSW,209,0.0,0.0,89,0.00,,---,0.07,VWS V14.01,2013-05-11 08:45:00,
2013-05-11 04:50:00,58.8,55.6,29.61,South,184,0.0,0.0,89,0.00,,---,0.07,VWS V14.01,2013-05-11 08:50:00,
2013-05-11 04:55:00,58.8,55.6,29.62,SSW,203,0.0,0.0,89,0.00,,---,0.07,VWS V14.01,2013-05-11 08:55:00,
2013-05-11 05:00:00,58.9,55.7,29.62,SSW,207,0.0,0.0,89,0.00,,---,0.07,VWS V14.01,2013-05-11 09:00:00,
2013-05-11 05:05:00,59.0,55.8,29.62,SSW,210,0.0,0.0,89,0.00,,---,0.07,VWS V14.01,2013-05-11 09:05:00,
2013-05-11 05:10:00,59.0,55.8,29.62,SSW,194,0.0,0.0,89,0.00,,---,0.07,VWS V14.01,2013-05-11 09:10:00,
2013-05-11 05:15:00,58.9,55.7,29.62,SSE,163,0.0,0.0,89,0.00,,---,0.07,VWS V14.01,2013-05-11 09:15:00,
2013-05-11 05:20:00,58.9,55.7,29.62,SSW,195,0.0,0.0,89,0.00,,---,0.07,VWS V14.01,2013-05-11 09:20:00,
2013-05-11 05:25:00,59.0,55.8,29.62,South,186,0.0,0.0,89,0.00,,---,0.07,VWS V14.01,2013-05-11 09:25:00,
2013-05-11 05:30:00,59.1,55.5,29.61,SSW,195,0.0,0.0,88,0.00,,---,0.07,VWS V14.01,2013-05-11 09:30:00,
2013-05-11 05:35:00,59.1,55.5,29.62,SSW,206,0.0,0.0,88,0.00,,---,0.07,VWS V14.01,2013-05-11 09:35:00,
2013-05-11 05:40:00,59.3,55.8,29.62,SSW,206,0.0,0.0,88,0.00,,---,0.07,VWS V14.01,2013-05-11 09:40:00,
2013-05-11 05:45:00,59.4,55.8,29.62,SW,215,0.0,0.0,88,0.00,,---,0.07,VWS V14.01,2013-05-11 09:45:00,
2013-05-11 05:50:00,59.5,56.0,29.62,SW,225,0.0,0.0,88,0.00,,---,0.07,VWS V14.01,2013-05-11 09:50:00,
2013-05-11 05:55:00,59.6,56.0,29.62,SSW,212,0.0,0.0,88,0.00,,---,0.07,VWS V14.01,2013-05-11 09:55:00,
2013-05-11 06:00:00,59.7,55.8,29.62,SW,217,0.0,0.0,87,0.00,,---,0.07,VWS V14.01,2013-05-11 10:00:00,
2013-05-11 06:05:00,59.7,55.8,29.62,South,187,0.0,0.0,87,0.00,,---,0.07,VWS V14.01,2013-05-11 10:05:00,
2013-05-11 06:10:00,59.6,56.0,29.62,SSW,192,0.0,0.0,88,0.01,,---,0.08,VWS V14.01,2013-05-11 10:10:00,
2013-05-11 06:15:00,59.1,56.2,29.63,SW,235,0.0,0.0,90,0.03,,---,0.10,VWS V14.01,2013-05-11 10:15:00,
2013-05-11 06:20:00,58.2,55.6,29.63,WSW,244,0.0,0.0,91,0.05,,---,0.12,VWS V14.01,2013-05-11 10:20:00,
2013-05-11 06:25:00,57.7,55.7,29.64,WSW,238,0.0,0.0,93,0.07,,---,0.14,VWS V14.01,2013-05-11 10:25:00,
2013-05-11 06:30:00,57.3,55.3,29.64,SW,222,0.0,0.0,93,0.08,,---,0.15,VWS V14.01,2013-05-11 10:30:00,
2013-05-11 06:35:00,57.0,55.3,29.64,West,259,0.0,0.0,94,0.10,,---,0.17,VWS V14.01,2013-05-11 10:35:00,
2013-05-11 06:41:00,56.8,55.1,29.64,WSW,248,0.0,0.0,94,0.11,,---,0.18,VWS V14.01,2013-05-11 10:41:00,
2013-05-11 06:46:00,56.5,54.8,29.64,WSW,238,0.0,0.0,94,0.12,,---,0.19,VWS V14.01,2013-05-11 10:46:00,
2013-05-11 06:51:00,56.2,54.8,29.64,WSW,238,0.0,0.0,95,0.12,,---,0.19,VWS V14.01,2013-05-11 10:51:00,
2013-05-11 06:56:00,56.0,54.3,29.64,SW,230,0.0,0.0,94,0.13,,---,0.20,VWS V14.01,2013-05-11 10:56:00,
2013-05-11 07:00:00,55.7,54.0,29.64,WSW,250,0.0,0.0,94,0.13,,---,0.20,VWS V14.01,2013-05-11 11:00:00,
2013-05-11 07:01:00,55.6,53.9,29.64,SW,235,0.0,0.0,94,0.13,,---,0.20,VWS V14.01,2013-05-11 11:01:00,
2013-05-11 07:06:00,55.0,53.3,29.64,SW,230,0.0,0.0,94,0.16,,---,0.23,VWS V14.01,2013-05-11 11:06:00,
2013-05-11 07:11:00,54.7,53.0,29.64,WSW,247,0.0,0.0,94,0.18,,---,0.25,VWS V14.01,2013-05-11 11:11:00,
2013-05-11 07:16:00,54.4,52.7,29.64,WSW,237,0.0,0.0,94,0.19,,---,0.26,VWS V14.01,2013-05-11 11:16:00,
2013-05-11 07:21:00,54.2,52.5,29.64,SW,222,0.0,0.0,94,0.20,,---,0.27,VWS V14.01,2013-05-11 11:21:00,
2013-05-11 07:26:00,53.9,52.5,29.64,WSW,240,0.0,0.0,95,0.20,,---,0.27,VWS V14.01,2013-05-11 11:26:00,
2013-05-11 07:30:00,53.7,52.3,29.64,West,276,0.0,0.0,95,0.20,,---,0.27,VWS V14.01,2013-05-11 11:30:00,
2013-05-11 07:31:00,53.6,51.9,29.64,SW,232,0.0,0.0,94,0.12,,---,0.27,VWS V14.01,2013-05-11 11:31:00,
2013-05-11 07:36:00,53.5,52.1,29.64,SW,229,0.0,0.0,95,0.13,,---,0.28,VWS V14.01,2013-05-11 11:36:00,
2013-05-11 07:41:00,53.4,52.0,29.65,WSW,240,0.0,0.0,95,0.13,,---,0.28,VWS V14.01,2013-05-11 11:41:00,
2013-05-11 07:46:00,53.2,51.8,29.64,WSW,244,0.0,0.0,95,0.13,,---,0.28,VWS V14.01,2013-05-11 11:46:00,
2013-05-11 07:51:00,52.9,51.5,29.65,WSW,246,0.0,0.0,95,0.13,,---,0.28,VWS V14.01,2013-05-11 11:51:00,
2013-05-11 07:56:00,52.5,51.1,29.65,West,261,0.0,0.0,95,0.13,,---,0.28,VWS V14.01,2013-05-11 11:56:00,
2013-05-11 08:00:00,52.3,50.9,29.65,WSW,246,0.0,0.0,95,0.13,,---,0.28,VWS V14.01,2013-05-11 12:00:00,
2013-05-11 08:01:00,52.2,50.8,29.64,WSW,246,0.0,0.0,95,0.08,,---,0.28,VWS V14.01,2013-05-11 12:01:00,
2013-05-11 08:06:00,51.9,50.5,29.65,WSW,242,0.0,0.0,95,0.08,,---,0.28,VWS V14.01,2013-05-11 12:06:00,
2013-05-11 08:11:00,51.6,50.2,29.65,West,275,0.0,0.0,95,0.08,,---,0.28,VWS V14.01,2013-05-11 12:11:00,
2013-05-11 08:16:00,51.4,50.0,29.65,SW,229,0.0,0.0,95,0.08,,---,0.28,VWS V14.01,2013-05-11 12:16:00,
2013-05-11 08:21:00,51.0,49.3,29.65,SW,232,0.0,0.0,94,0.08,,---,0.28,VWS V14.01,2013-05-11 12:21:00,
2013-05-11 08:26:00,50.8,49.4,29.66,West,272,0.0,0.0,95,0.08,,---,0.28,VWS V14.01,2013-05-11 12:26:00,
2013-05-11 08:30:00,50.7,49.3,29.66,SW,233,0.0,0.0,95,0.08,,---,0.28,VWS V14.01,2013-05-11 12:30:00,
2013-05-11 08:31:00,50.6,49.2,29.66,SW,235,0.0,0.0,95,0.01,,---,0.28,VWS V14.01,2013-05-11 12:31:00,
2013-05-11 08:36:00,50.1,48.4,29.66,SW,236,0.0,0.0,94,0.01,,---,0.28,VWS V14.01,2013-05-11 12:36:00,
2013-05-11 08:41:00,49.7,48.0,29.66,West,267,0.0,0.0,94,0.01,,---,0.28,VWS V14.01,2013-05-11 12:41:00,
2013-05-11 08:46:00,49.4,47.8,29.66,SW,234,0.0,0.0,94,0.01,,---,0.28,VWS V14.01,2013-05-11 12:46:00,
2013-05-11 08:51:00,49.3,47.7,29.67,WSW,255,0.0,0.0,94,0.01,,---,0.28,VWS V14.01,2013-05-11 12:51:00,
2013-05-11 08:57:00,49.2,47.5,29.67,WSW,253,0.0,0.0,94,0.01,,---,0.28,VWS V14.01,2013-05-11 12:57:00,
2013-05-11 09:00:00,49.2,47.5,29.68,WSW,240,0.0,0.0,94,0.01,,---,0.28,VWS V14.01,2013-05-11 13:00:00,
2013-05-11 09:02:00,49.3,47.9,29.67,SW,229,0.0,0.0,95,0.00,,---,0.28,VWS V14.01,2013-05-11 13:02:00,
2013-05-11 09:07:00,49.4,47.8,29.67,WSW,246,0.0,0.0,94,0.00,,---,0.28,VWS V14.01,2013-05-11 13:07:00,
2013-05-11 09:12:00,49.5,47.8,29.67,WSW,240,0.0,0.0,94,0.00,,---,0.28,VWS V14.01,2013-05-11 13:12:00,
2013-05-11 09:17:00,49.5,47.6,29.67,SW,218,0.0,0.0,93,0.00,,---,0.28,VWS V14.01,2013-05-11 13:17:00,
2013-05-11 09:22:00,49.5,47.6,29.67,WSW,255,0.0,0.0,93,0.00,,---,0.28,VWS V14.01,2013-05-11 13:22:00,
2013-05-11 09:27:00,49.4,47.2,29.68,West,266,0.0,0.0,92,0.00,,---,0.28,VWS V14.01,2013-05-11 13:27:00,
2013-05-11 09:30:00,49.4,47.2,29.68,WSW,240,0.0,0.0,92,0.00,,---,0.28,VWS V14.01,2013-05-11 13:30:00,
2013-05-11 09:32:00,49.4,47.2,29.68,SW,236,0.0,0.0,92,0.00,,---,0.28,VWS V14.01,2013-05-11 13:32:00,
2013-05-11 09:37:00,49.3,47.1,29.68,SW,227,0.0,0.0,92,0.00,,---,0.28,VWS V14.01,2013-05-11 13:37:00,
2013-05-11 09:42:00,49.3,47.1,29.68,SW,221,0.0,0.0,92,0.00,,---,0.28,VWS V14.01,2013-05-11 13:42:00,
2013-05-11 09:47:00,49.3,47.1,29.68,SW,231,0.0,0.0,92,0.00,,---,0.28,VWS V14.01,2013-05-11 13:47:00,
2013-05-11 09:52:00,49.3,47.1,29.68,SW,234,0.0,0.0,92,0.00,,---,0.28,VWS V14.01,2013-05-11 13:52:00,
2013-05-11 09:57:00,49.3,47.1,29.68,SW,229,0.0,0.0,92,0.00,,---,0.28,VWS V14.01,2013-05-11 13:57:00,
2013-05-11 10:00:00,49.3,47.1,29.69,SW,223,0.0,0.0,92,0.00,,---,0.28,VWS V14.01,2013-05-11 14:00:00,
2013-05-11 10:02:00,49.3,47.1,29.68,WSW,239,0.0,0.0,92,0.00,,---,0.28,VWS V14.01,2013-05-11 14:02:00,
2013-05-11 10:07:00,49.2,47.0,29.68,SW,223,0.0,0.0,92,0.00,,---,0.28,VWS V14.01,2013-05-11 14:07:00,
2013-05-11 10:12:00,49.4,47.2,29.68,SW,216,0.0,0.0,92,0.00,,---,0.28,VWS V14.01,2013-05-11 14:12:00,
2013-05-11 10:17:00,49.6,47.4,29.68,WSW,238,0.0,0.0,92,0.00,,---,0.28,VWS V14.01,2013-05-11 14:17:00,
2013-05-11 10:22:00,49.8,47.6,29.68,SW,232,0.0,0.0,92,0.00,,---,0.28,VWS V14.01,2013-05-11 14:22:00,
2013-05-11 10:27:00,49.8,47.6,29.68,SW,229,0.0,0.0,92,0.00,,---,0.28,VWS V14.01,2013-05-11 14:27:00,
2013-05-11 10:30:00,49.8,47.6,29.68,SW,233,0.0,0.0,92,0.00,,---,0.28,VWS V14.01,2013-05-11 14:30:00,
2013-05-11 10:32:00,49.9,47.7,29.68,SW,228,0.0,0.0,92,0.00,,---,0.28,VWS V14.01,2013-05-11 14:32:00,
2013-05-11 10:37:00,49.7,47.2,29.67,WSW,248,0.0,0.0,91,0.00,,---,0.28,VWS V14.01,2013-05-11 14:37:00,
2013-05-11 10:42:00,49.8,47.3,29.67,SW,228,0.0,0.0,91,0.00,,---,0.28,VWS V14.01,2013-05-11 14:42:00,
2013-05-11 10:47:00,50.4,48.2,29.67,SW,228,0.0,0.0,92,0.00,,---,0.28,VWS V14.01,2013-05-11 14:47:00,
2013-05-11 10:52:00,50.9,48.4,29.67,WSW,245,0.0,0.0,91,0.00,,---,0.28,VWS V14.01,2013-05-11 14:52:00,
2013-05-11 10:57:00,51.0,47.9,29.67,SW,231,0.0,0.0,89,0.00,,---,0.28,VWS V14.01,2013-05-11 14:57:00,
2013-05-11 11:00:00,51.1,48.0,29.67,SW,231,0.0,0.0,89,0.00,,---,0.28,VWS V14.01,2013-05-11 15:00:00,
2013-05-11 11:03:00,51.1,47.4,29.67,WSW,251,0.0,0.0,87,0.00,,---,0.28,VWS V14.01,2013-05-11 15:03:00,
2013-05-11 11:08:00,51.1,47.4,29.67,WSW,242,0.0,0.0,87,0.00,,---,0.28,VWS V14.01,2013-05-11 15:08:00,
2013-05-11 11:13:00,51.4,47.7,29.68,WSW,239,0.0,0.0,87,0.00,,---,0.28,VWS V14.01,2013-05-11 15:13:00,
2013-05-11 11:18:00,51.5,47.5,29.68,SW,220,0.0,0.0,86,0.00,,---,0.28,VWS V14.01,2013-05-11 15:18:00,
2013-05-11 11:23:00,51.7,47.7,29.68,SW,236,0.0,0.0,86,0.00,,---,0.28,VWS V14.01,2013-05-11 15:23:00,
2013-05-11 11:28:00,52.0,48.0,29.68,SW,218,0.0,0.0,86,0.00,,---,0.28,VWS V14.01,2013-05-11 15:28:00,
2013-05-11 11:30:00,52.2,47.8,29.68,SSW,211,0.0,0.0,85,0.00,,---,0.28,VWS V14.01,2013-05-11 15:30:00,
2013-05-11 11:33:00,52.4,47.7,29.68,WSW,255,0.0,0.0,84,0.00,,---,0.28,VWS V14.01,2013-05-11 15:33:00,
2013-05-11 11:38:00,52.3,47.3,29.68,SW,225,0.0,0.0,83,0.00,,---,0.28,VWS V14.01,2013-05-11 15:38:00,
2013-05-11 11:43:00,51.8,46.8,29.68,SW,233,0.0,0.0,83,0.00,,---,0.28,VWS V14.01,2013-05-11 15:43:00,
2013-05-11 11:48:00,51.7,47.0,29.68,WSW,246,0.0,0.0,84,0.00,,---,0.28,VWS V14.01,2013-05-11 15:48:00,
2013-05-11 11:53:00,51.7,47.0,29.68,WSW,240,0.0,0.0,84,0.00,,---,0.28,VWS V14.01,2013-05-11 15:53:00,
2013-05-11 11:58:00,51.9,47.2,29.69,SW,224,0.0,0.0,84,0.00,,---,0.28,VWS V14.01,2013-05-11 15:58:00,
2013-05-11 12:00:00,51.9,47.2,29.69,SW,228,0.0,0.0,84,0.00,,---,0.28,VWS V14.01,2013-05-11 16:00:00,
2013-05-11 12:03:00,52.0,47.0,29.69,SW,235,0.0,0.0,83,0.00,,---,0.28,VWS V14.01,2013-05-11 16:03:00,
2013-05-11 12:08:00,51.7,47.0,29.69,West,263,0.0,0.0,84,0.00,,---,0.28,VWS V14.01,2013-05-11 16:08:00,
2013-05-11 12:13:00,51.7,47.0,29.69,WSW,242,0.0,0.0,84,0.00,,---,0.28,VWS V14.01,2013-05-11 16:13:00,
2013-05-11 12:18:00,51.8,46.8,29.69,SW,231,0.0,0.0,83,0.00,,---,0.28,VWS V14.01,2013-05-11 16:18:00,
2013-05-11 12:23:00,52.1,47.1,29.69,SW,221,0.0,0.0,83,0.00,,---,0.28,VWS V14.01,2013-05-11 16:23:00,
2013-05-11 12:28:00,52.2,47.5,29.69,SW,235,0.0,0.0,84,0.00,,---,0.28,VWS V14.01,2013-05-11 16:28:00,
2013-05-11 12:30:00,52.2,47.5,29.69,SW,225,0.0,0.0,84,0.00,,---,0.28,VWS V14.01,2013-05-11 16:30:00,
2013-05-11 12:33:00,52.3,47.6,29.69,WSW,246,0.0,0.0,84,0.00,,---,0.28,VWS V14.01,2013-05-11 16:33:00,
2013-05-11 12:38:00,52.3,47.3,29.69,SW,221,0.0,0.0,83,0.00,,---,0.28,VWS V14.01,2013-05-11 16:38:00,
2013-05-11 12:43:00,52.4,47.7,29.69,SW,219,0.0,0.0,84,0.00,,---,0.28,VWS V14.01,2013-05-11 16:43:00,
2013-05-11 12:49:00,52.9,48.2,29.69,WSW,242,0.0,0.0,84,0.00,,---,0.28,VWS V14.01,2013-05-11 16:49:00,
2013-05-11 12:54:00,53.4,48.4,29.69,SW,225,0.0,0.0,83,0.00,,---,0.28,VWS V14.01,2013-05-11 16:54:00,
2013-05-11 12:59:00,53.2,47.5,29.69,SW,224,0.0,0.0,81,0.00,,---,0.28,VWS V14.01,2013-05-11 16:59:00,
2013-05-11 13:00:00,53.2,47.9,29.69,WSW,247,0.0,0.0,82,0.00,,---,0.28,VWS V14.01,2013-05-11 17:00:00,
2013-05-11 13:04:00,53.4,48.0,29.69,WSW,246,0.0,0.0,82,0.00,,---,0.28,VWS V14.01,2013-05-11 17:04:00,
2013-05-11 13:09:00,53.5,47.8,29.69,WSW,248,0.0,0.0,81,0.00,,---,0.28,VWS V14.01,2013-05-11 17:09:00,
2013-05-11 13:14:00,53.5,48.2,29.69,SW,231,0.0,0.0,82,0.00,,---,0.28,VWS V14.01,2013-05-11 17:14:00,
2013-05-11 13:19:00,53.7,48.3,29.69,SW,227,0.0,0.0,82,0.00,,---,0.28,VWS V14.01,2013-05-11 17:19:00,
2013-05-11 13:24:00,54.1,48.4,29.69,SW,229,0.0,0.0,81,0.00,,---,0.28,VWS V14.01,2013-05-11 17:24:00,
2013-05-11 13:29:00,54.2,48.5,29.69,SW,227,0.0,0.0,81,0.00,,---,0.28,VWS V14.01,2013-05-11 17:29:00,
2013-05-11 13:30:00,54.2,48.5,29.69,SW,225,0.0,0.0,81,0.00,,---,0.28,VWS V14.01,2013-05-11 17:30:00,
2013-05-11 13:34:00,54.1,48.4,29.69,WSW,245,0.0,0.0,81,0.00,,---,0.28,VWS V14.01,2013-05-11 17:34:00,
2013-05-11 13:39:00,54.3,48.3,29.69,SSW,210,0.0,0.0,80,0.00,,---,0.28,VWS V14.01,2013-05-11 17:39:00,
2013-05-11 13:44:00,54.4,48.7,29.69,West,268,0.0,0.0,81,0.00,,---,0.28,VWS V14.01,2013-05-11 17:44:00,
2013-05-11 13:49:00,54.4,48.7,29.69,WSW,249,0.0,0.0,81,0.00,,---,0.28,VWS V14.01,2013-05-11 17:49:00,
2013-05-11 13:54:00,54.6,48.6,29.69,SSW,212,0.0,0.0,80,0.00,,---,0.28,VWS V14.01,2013-05-11 17:54:00,
2013-05-11 13:59:00,54.6,48.2,29.69,SW,226,0.0,0.0,79,0.00,,---,0.28,VWS V14.01,2013-05-11 17:59:00,
2013-05-11 14:00:00,54.5,48.1,29.69,WSW,238,0.0,0.0,79,0.00,,---,0.28,VWS V14.01,2013-05-11 18:00:00,
2013-05-11 14:04:00,54.2,47.8,29.69,SW,227,0.0,0.0,79,0.00,,---,0.28,VWS V14.01,2013-05-11 18:04:00,
2013-05-11 14:09:00,54.8,48.8,29.69,WSW,249,0.0,0.0,80,0.00,,---,0.28,VWS V14.01,2013-05-11 18:09:00,
2013-05-11 14:14:00,55.3,48.9,29.69,SW,225,0.0,0.0,79,0.00,,---,0.28,VWS V14.01,2013-05-11 18:14:00,
2013-05-11 14:19:00,55.7,49.0,29.69,SW,227,0.0,0.0,78,0.00,,---,0.28,VWS V14.01,2013-05-11 18:19:00,
2013-05-11 14:24:00,55.5,48.4,29.69,SSW,202,0.0,0.0,77,0.00,,---,0.28,VWS V14.01,2013-05-11 18:24:00,
2013-05-11 14:29:00,56.4,49.3,29.69,SW,217,0.0,0.0,77,0.00,,---,0.28,VWS V14.01,2013-05-11 18:29:00,
2013-05-11 14:30:00,56.4,49.3,29.69,SSW,207,0.0,0.0,77,0.00,,---,0.28,VWS V14.01,2013-05-11 18:30:00,
2013-05-11 14:34:00,56.6,49.5,29.69,SW,223,0.0,0.0,77,0.00,,---,0.28,VWS V14.01,2013-05-11 18:34:00,
2013-05-11 14:39:00,56.7,49.6,29.69,West,278,0.0,0.0,77,0.00,,---,0.28,VWS V14.01,2013-05-11 18:39:00,
2013-05-11 14:44:00,56.7,48.9,29.69,WSW,257,0.0,0.0,75,0.00,,---,0.28,VWS V14.01,2013-05-11 18:44:00,
2013-05-11 14:49:00,56.6,49.1,29.69,SW,233,0.0,0.0,76,0.00,,---,0.28,VWS V14.01,2013-05-11 18:49:00,
2013-05-11 14:54:00,56.7,49.6,29.69,SW,225,0.0,0.0,77,0.00,,---,0.28,VWS V14.01,2013-05-11 18:54:00,
2013-05-11 14:59:00,56.1,48.7,29.69,SW,223,0.0,0.0,76,0.00,,---,0.28,VWS V14.01,2013-05-11 18:59:00,
2013-05-11 15:00:00,56.1,48.7,29.69,SW,220,0.0,0.0,76,0.00,,---,0.28,VWS V14.01,2013-05-11 19:00:00,
2013-05-11 15:04:00,55.8,48.4,29.69,WSW,255,0.0,0.0,76,0.00,,---,0.28,VWS V14.01,2013-05-11 19:04:00,
2013-05-11 15:09:00,56.0,48.9,29.69,West,266,0.0,0.0,77,0.00,,---,0.28,VWS V14.01,2013-05-11 19:09:00,
2013-05-11 15:14:00,56.0,49.2,29.69,WSW,248,0.0,0.0,78,0.00,,---,0.28,VWS V14.01,2013-05-11 19:14:00,
2013-05-11 15:19:00,56.1,48.7,29.68,SW,233,0.0,0.0,76,0.00,,---,0.28,VWS V14.01,2013-05-11 19:19:00,
2013-05-11 15:24:00,56.4,48.9,29.68,SW,234,0.0,0.0,76,0.00,,---,0.28,VWS V14.01,2013-05-11 19:24:00,
2013-05-11 15:29:00,56.3,48.1,29.69,WSW,240,0.0,0.0,74,0.00,,---,0.28,VWS V14.01,2013-05-11 19:29:00,
2013-05-11 15:30:00,56.3,48.1,29.69,WSW,240,0.0,0.0,74,0.00,,---,0.28,VWS V14.01,2013-05-11 19:30:00,
2013-05-11 15:34:00,56.2,48.4,29.68,SW,230,0.0,0.0,75,0.00,,---,0.28,VWS V14.01,2013-05-11 19:34:00,
2013-05-11 15:40:00,56.3,48.8,29.69,SW,224,0.0,0.0,76,0.00,,---,0.28,VWS V14.01,2013-05-11 19:40:00,
2013-05-11 15:45:00,56.2,48.0,29.69,SW,223,0.0,0.0,74,0.00,,---,0.28,VWS V14.01,2013-05-11 19:45:00,
2013-05-11 15:50:00,56.5,49.0,29.69,SW,225,0.0,0.0,76,0.00,,---,0.28,VWS V14.01,2013-05-11 19:50:00,
2013-05-11 15:55:00,56.5,48.7,29.68,West,263,0.0,0.0,75,0.00,,---,0.28,VWS V14.01,2013-05-11 19:55:00,
2013-05-11 16:00:00,56.2,48.8,29.68,SW,233,0.0,0.0,76,0.00,,---,0.28,VWS V14.01,2013-05-11 20:00:00,
2013-05-11 16:05:00,56.0,48.9,29.69,WSW,249,0.0,0.0,77,0.00,,---,0.28,VWS V14.01,2013-05-11 20:05:00,
2013-05-11 16:10:00,55.7,48.3,29.69,West,266,0.0,0.0,76,0.00,,---,0.28,VWS V14.01,2013-05-11 20:10:00,
2013-05-11 16:15:00,55.6,48.9,29.69,SW,234,0.0,0.0,78,0.00,,---,0.28,VWS V14.01,2013-05-11 20:15:00,
2013-05-11 16:20:00,56.0,49.6,29.68,SW,233,0.0,0.0,79,0.00,,---,0.28,VWS V14.01,2013-05-11 20:20:00,
2013-05-11 16:25:00,56.2,49.1,29.68,SW,230,0.0,0.0,77,0.00,,---,0.28,VWS V14.01,2013-05-11 20:25:00,
2013-05-11 16:30:00,55.9,48.5,29.69,SW,234,0.0,0.0,76,0.00,,---,0.28,VWS V14.01,2013-05-11 20:30:00,
2013-05-11 16:35:00,55.5,48.4,29.69,WSW,242,0.0,0.0,77,0.00,,---,0.28,VWS V14.01,2013-05-11 20:35:00,
2013-05-11 16:40:00,55.0,48.3,29.68,WSW,248,0.0,0.0,78,0.00,,---,0.28,VWS V14.01,2013-05-11 20:40:00,
2013-05-11 16:45:00,54.8,48.4,29.68,WSW,248,0.0,0.0,79,0.00,,---,0.28,VWS V14.01,2013-05-11 20:45:00,
2013-05-11 16:50:00,54.7,48.3,29.68,West,273,0.0,0.0,79,0.00,,---,0.28,VWS V14.01,2013-05-11 20:50:00,
2013-05-11 16:55:00,54.8,48.8,29.68,SW,232,0.0,0.0,80,0.00,,---,0.28,VWS V14.01,2013-05-11 20:55:00,
2013-05-11 17:00:00,54.7,48.0,29.68,SW,231,0.0,0.0,78,0.00,,---,0.28,VWS V14.01,2013-05-11 21:00:00,
2013-05-11 17:05:00,54.6,47.5,29.68,WSW,257,0.0,0.0,77,0.00,,---,0.28,VWS V14.01,2013-05-11 21:05:00,
2013-05-11 17:10:00,54.7,47.3,29.69,SW,236,0.0,0.0,76,0.00,,---,0.28,VWS V14.01,2013-05-11 21:10:00,
2013-05-11 17:15:00,55.0,47.6,29.68,WSW,249,0.0,0.0,76,0.00,,---,0.28,VWS V14.01,2013-05-11 21:15:00,
2013-05-11 17:20:00,55.3,47.5,29.68,SW,225,0.0,0.0,75,0.00,,---,0.28,VWS V14.01,2013-05-11 21:20:00,
2013-05-11 17:25:00,55.5,47.7,29.68,WSW,245,0.0,0.0,75,0.00,,---,0.28,VWS V14.01,2013-05-11 21:25:00,
2013-05-11 17:30:00,55.7,47.5,29.69,West,263,0.0,0.0,74,0.00,,---,0.28,VWS V14.01,2013-05-11 21:30:00,
2013-05-11 17:35:00,55.8,47.3,29.68,SW,232,0.0,0.0,73,0.00,,---,0.28,VWS V14.01,2013-05-11 21:35:00,
2013-05-11 17:41:00,55.6,46.7,29.68,SW,229,0.0,0.0,72,0.00,,---,0.28,VWS V14.01,2013-05-11 21:41:00,
2013-05-11 17:46:00,55.3,47.2,29.69,SW,235,0.0,0.0,74,0.00,,---,0.28,VWS V14.01,2013-05-11 21:46:00,
2013-05-11 17:51:00,55.0,46.9,29.69,WSW,244,0.0,0.0,74,0.00,,---,0.28,VWS V14.01,2013-05-11 21:51:00,
2013-05-11 17:56:00,55.0,47.2,29.69,SW,235,0.0,0.0,75,0.00,,---,0.28,VWS V14.01,2013-05-11 21:56:00,
2013-05-11 18:00:00,54.9,47.1,29.69,SW,235,0.0,0.0,75,0.00,,---,0.28,VWS V14.01,2013-05-11 22:00:00,
2013-05-11 18:01:00,55.0,47.2,29.69,SW,233,0.0,0.0,75,0.00,,---,0.28,VWS V14.01,2013-05-11 22:01:00,
2013-05-11 18:06:00,55.0,47.2,29.69,WSW,249,0.0,0.0,75,0.00,,---,0.28,VWS V14.01,2013-05-11 22:06:00,
2013-05-11 18:11:00,55.0,47.2,29.69,WSW,246,0.0,0.0,75,0.00,,---,0.28,VWS V14.01,2013-05-11 22:11:00,
2013-05-11 18:16:00,55.2,47.1,29.69,SW,233,0.0,0.0,74,0.00,,---,0.28,VWS V14.01,2013-05-11 22:16:00,
2013-05-11 18:21:00,55.2,47.1,29.69,SW,230,0.0,0.0,74,0.00,,---,0.28,VWS V14.01,2013-05-11 22:21:00,
2013-05-11 18:26:00,55.0,46.9,29.69,WSW,246,0.0,0.0,74,0.00,,---,0.28,VWS V14.01,2013-05-11 22:26:00,
2013-05-11 18:30:00,55.0,46.5,29.69,WSW,242,0.0,0.0,73,0.00,,---,0.28,VWS V14.01,2013-05-11 22:30:00,
2013-05-11 18:31:00,55.0,46.9,29.69,WSW,239,0.0,0.0,74,0.00,,---,0.28,VWS V14.01,2013-05-11 22:31:00,
2013-05-11 18:36:00,55.0,46.5,29.69,SW,230,0.0,0.0,73,0.00,,---,0.28,VWS V14.01,2013-05-11 22:36:00,
2013-05-11 18:41:00,55.1,46.6,29.69,West,276,0.0,0.0,73,0.00,,---,0.28,VWS V14.01,2013-05-11 22:41:00,
2013-05-11 18:46:00,55.2,46.7,29.69,West,280,0.0,0.0,73,0.00,,---,0.28,VWS V14.01,2013-05-11 22:46:00,
2013-05-11 18:51:00,54.9,46.1,29.69,West,276,0.0,0.0,72,0.00,,---,0.28,VWS V14.01,2013-05-11 22:51:00,
2013-05-11 18:56:00,54.6,46.1,29.69,West,273,0.0,0.0,73,0.00,,---,0.28,VWS V14.01,2013-05-11 22:56:00,
2013-05-11 19:00:00,54.4,46.3,29.70,West,265,0.0,0.0,74,0.00,,---,0.28,VWS V14.01,2013-05-11 23:00:00,
2013-05-11 19:01:00,54.4,46.3,29.70,West,273,0.0,0.0,74,0.00,,---,0.28,VWS V14.01,2013-05-11 23:01:00,
2013-05-11 19:06:00,54.2,46.5,29.70,WSW,254,0.0,0.0,75,0.00,,---,0.28,VWS V14.01,2013-05-11 23:06:00,
2013-05-11 19:11:00,54.4,46.7,29.69,WSW,241,0.0,0.0,75,0.00,,---,0.28,VWS V14.01,2013-05-11 23:11:00,
2013-05-11 19:16:00,54.8,47.0,29.69,WSW,247,0.0,0.0,75,0.00,,---,0.28,VWS V14.01,2013-05-11 23:16:00,
2013-05-11 19:21:00,55.0,47.2,29.70,WSW,255,0.0,0.0,75,0.00,,---,0.28,VWS V14.01,2013-05-11 23:21:00,
2013-05-11 19:26:00,55.0,47.2,29.70,WSW,252,0.0,0.0,75,0.00,,---,0.28,VWS V14.01,2013-05-11 23:26:00,
2013-05-11 19:30:00,54.9,47.1,29.70,SW,232,0.0,0.0,75,0.00,,---,0.28,VWS V14.01,2013-05-11 23:30:00,
2013-05-11 19:31:00,54.8,46.7,29.70,WSW,246,0.0,0.0,74,0.00,,---,0.28,VWS V14.01,2013-05-11 23:31:00,
2013-05-11 19:36:00,54.5,46.8,29.70,West,261,0.0,0.0,75,0.00,,---,0.28,VWS V14.01,2013-05-11 23:36:00,
2013-05-11 19:42:00,54.2,46.8,29.70,WSW,251,0.0,0.0,76,0.00,,---,0.28,VWS V14.01,2013-05-11 23:42:00,
2013-05-11 19:46:00,53.7,46.3,29.71,WSW,244,0.0,0.0,76,0.00,,---,0.28,VWS V14.01,2013-05-11 23:46:00,
2013-05-11 19:51:00,53.2,46.2,29.71,West,261,0.0,0.0,77,0.00,,---,0.28,VWS V14.01,2013-05-11 23:51:00,
2013-05-11 19:56:00,52.7,46.0,29.71,WSW,255,0.0,0.0,78,0.00,,---,0.28,VWS V14.01,2013-05-11 23:56:00,
2013-05-11 20:00:00,52.4,46.1,29.70,WSW,252,0.0,0.0,79,0.00,,---,0.28,VWS V14.01,2013-05-12 00:00:00,
2013-05-11 20:01:00,52.3,46.0,29.70,WSW,250,0.0,0.0,79,0.00,,---,0.28,VWS V14.01,2013-05-12 00:01:00,
2013-05-11 20:06:00,51.9,45.9,29.71,WSW,249,0.0,0.0,80,0.00,,---,0.28,VWS V14.01,2013-05-12 00:06:00,
2013-05-11 20:11:00,51.5,45.9,29.70,West,260,0.0,0.0,81,0.00,,---,0.28,VWS V14.01,2013-05-12 00:11:00,
2013-05-11 20:16:00,51.3,46.0,29.70,WSW,256,0.0,0.0,82,0.00,,---,0.28,VWS V14.01,2013-05-12 00:16:00,
2013-05-11 20:21:00,51.2,45.9,29.71,West,262,0.0,0.0,82,0.00,,---,0.28,VWS V14.01,2013-05-12 00:21:00,
2013-05-11 20:26:00,51.0,46.0,29.71,SW,232,0.0,0.0,83,0.00,,---,0.28,VWS V14.01,2013-05-12 00:26:00,
2013-05-11 20:30:00,50.9,45.9,29.72,SW,234,0.0,0.0,83,0.00,,---,0.28,VWS V14.01,2013-05-12 00:30:00,
2013-05-11 20:31:00,50.9,45.9,29.71,SW,236,0.0,0.0,83,0.00,,---,0.28,VWS V14.01,2013-05-12 00:31:00,
2013-05-11 20:36:00,50.7,46.0,29.71,WSW,238,0.0,0.0,84,0.00,,---,0.28,VWS V14.01,2013-05-12 00:36:00,
2013-05-11 20:41:00,50.4,45.8,29.71,WSW,240,0.0,0.0,84,0.00,,---,0.28,VWS V14.01,2013-05-12 00:41:00,
2013-05-11 20:47:00,50.2,45.9,29.71,WSW,242,0.0,0.0,85,0.00,,---,0.28,VWS V14.01,2013-05-12 00:47:00,
2013-05-11 20:52:00,49.9,45.6,29.71,WSW,244,0.0,0.0,85,0.00,,---,0.28,VWS V14.01,2013-05-12 00:52:00,
2013-05-11 20:57:00,49.7,45.7,29.71,SW,236,0.0,0.0,86,0.00,,---,0.28,VWS V14.01,2013-05-12 00:57:00,
2013-05-11 21:00:00,49.6,45.6,29.72,WSW,237,0.0,0.0,86,0.00,,---,0.28,VWS V14.01,2013-05-12 01:00:00,
2013-05-11 21:02:00,49.6,45.6,29.72,WSW,248,0.0,0.0,86,0.00,,---,0.28,VWS V14.01,2013-05-12 01:02:00,
2013-05-11 21:07:00,49.4,45.4,29.72,WSW,246,0.0,0.0,86,0.00,,---,0.28,VWS V14.01,2013-05-12 01:07:00,
2013-05-11 21:12:00,49.0,45.3,29.72,WSW,248,0.0,0.0,87,0.00,,---,0.28,VWS V14.01,2013-05-12 01:12:00,
2013-05-11 21:17:00,48.8,45.1,29.72,WSW,246,0.0,0.0,87,0.00,,---,0.28,VWS V14.01,2013-05-12 01:17:00,
2013-05-11 21:22:00,48.5,45.1,29.72,WSW,247,0.0,0.0,88,0.00,,---,0.28,VWS V14.01,2013-05-12 01:22:00,
2013-05-11 21:27:00,48.4,45.0,29.72,WSW,238,0.0,0.0,88,0.00,,---,0.28,VWS V14.01,2013-05-12 01:27:00,
2013-05-11 21:30:00,48.2,44.8,29.72,SW,236,0.0,0.0,88,0.00,,---,0.28,VWS V14.01,2013-05-12 01:30:00,
2013-05-11 21:32:00,48.1,44.7,29.72,WSW,244,0.0,0.0,88,0.00,,---,0.28,VWS V14.01,2013-05-12 01:32:00,
2013-05-11 21:37:00,47.9,44.8,29.73,SW,235,0.0,0.0,89,0.00,,---,0.28,VWS V14.01,2013-05-12 01:37:00,
2013-05-11 21:42:00,47.7,44.6,29.73,SW,235,0.0,0.0,89,0.00,,---,0.28,VWS V14.01,2013-05-12 01:42:00,
2013-05-11 21:47:00,47.6,44.8,29.73,WSW,243,0.0,0.0,90,0.00,,---,0.28,VWS V14.01,2013-05-12 01:47:00,
2013-05-11 21:52:00,47.4,44.6,29.73,SW,230,0.0,0.0,90,0.00,,---,0.28,VWS V14.01,2013-05-12 01:52:00,
2013-05-11 21:57:00,47.3,44.5,29.73,WSW,240,0.0,0.0,90,0.00,,---,0.28,VWS V14.01,2013-05-12 01:57:00,
2013-05-11 22:00:00,47.2,44.4,29.73,SW,236,0.0,0.0,90,0.00,,---,0.28,VWS V14.01,2013-05-12 02:00:00,
2013-05-11 22:02:00,47.2,44.4,29.73,WSW,251,0.0,0.0,90,0.00,,---,0.28,VWS V14.01,2013-05-12 02:02:00,
2013-05-11 22:07:00,47.0,44.2,29.73,SW,235,0.0,0.0,90,0.00,,---,0.28,VWS V14.01,2013-05-12 02:07:00,
2013-05-11 22:12:00,46.9,44.1,29.72,WSW,241,0.0,0.0,90,0.00,,---,0.28,VWS V14.01,2013-05-12 02:12:00,
2013-05-11 22:17:00,46.8,44.0,29.72,WSW,243,0.0,0.0,90,0.00,,---,0.28,VWS V14.01,2013-05-12 02:17:00,
2013-05-11 22:22:00,46.6,44.1,29.72,WSW,244,0.0,0.0,91,0.00,,---,0.28,VWS V14.01,2013-05-12 02:22:00,
2013-05-11 22:27:00,46.4,43.9,29.72,WSW,241,0.0,0.0,91,0.00,,---,0.28,VWS V14.01,2013-05-12 02:27:00,
2013-05-11 22:30:00,46.3,43.8,29.72,WSW,242,0.0,0.0,91,0.00,,---,0.28,VWS V14.01,2013-05-12 02:30:00,
2013-05-11 22:32:00,46.2,43.7,29.72,WSW,245,0.0,0.0,91,0.00,,---,0.28,VWS V14.01,2013-05-12 02:32:00,
2013-05-11 22:37:00,46.0,43.5,29.71,WSW,239,0.0,0.0,91,0.00,,---,0.28,VWS V14.01,2013-05-12 02:37:00,
2013-05-11 22:42:00,45.8,43.6,29.71,WSW,241,0.0,0.0,92,0.00,,---,0.28,VWS V14.01,2013-05-12 02:42:00,
2013-05-11 22:47:00,45.6,43.4,29.71,WSW,244,0.0,0.0,92,0.00,,---,0.28,VWS V14.01,2013-05-12 02:47:00,
2013-05-11 22:52:00,45.5,43.3,29.71,WSW,238,0.0,0.0,92,0.00,,---,0.28,VWS V14.01,2013-05-12 02:52:00,
2013-05-11 22:57:00,45.5,43.6,29.71,SW,236,0.0,0.0,93,0.00,,---,0.28,VWS V14.01,2013-05-12 02:57:00,
2013-05-11 23:00:00,45.5,43.6,29.71,SW,232,0.0,0.0,93,0.00,,---,0.28,VWS V14.01,2013-05-12 03:00:00,
2013-05-11 23:02:00,45.5,43.6,29.71,SW,230,0.0,0.0,93,0.00,,---,0.28,VWS V14.01,2013-05-12 03:02:00,
2013-05-11 23:07:00,45.5,43.6,29.71,SW,236,0.0,0.0,93,0.00,,---,0.28,VWS V14.01,2013-05-12 03:07:00,
2013-05-11 23:12:00,45.5,43.6,29.71,SW,234,0.0,0.0,93,0.00,,---,0.28,VWS V14.01,2013-05-12 03:12:00,
2013-05-11 23:17:00,45.6,43.7,29.70,WSW,240,0.0,0.0,93,0.00,,---,0.28,VWS V14.01,2013-05-12 03:17:00,
2013-05-11 23:22:00,45.8,43.9,29.70,SW,230,0.0,0.0,93,0.00,,---,0.28,VWS V14.01,2013-05-12 03:22:00,
2013-05-11 23:27:00,46.0,44.1,29.70,SW,227,0.0,0.0,93,0.00,,---,0.28,VWS V14.01,2013-05-12 03:27:00,
2013-05-11 23:30:00,46.0,43.8,29.70,SW,228,0.0,0.0,92,0.00,,---,0.28,VWS V14.01,2013-05-12 03:30:00,
2013-05-11 23:32:00,46.0,44.1,29.70,SW,233,0.0,0.0,93,0.00,,---,0.28,VWS V14.01,2013-05-12 03:32:00,
2013-05-11 23:37:00,46.1,43.9,29.70,WSW,237,0.0,0.0,92,0.00,,---,0.28,VWS V14.01,2013-05-12 03:37:00,
2013-05-11 23:42:00,46.2,44.0,29.70,SW,231,0.0,0.0,92,0.00,,---,0.28,VWS V14.01,2013-05-12 03:42:00,
2013-05-11 23:47:00,46.2,44.0,29.69,SSW,213,0.0,0.0,92,0.00,,---,0.28,VWS V14.01,2013-05-12 03:47:00,
2013-05-11 23:52:00,46.3,43.8,29.69,SW,223,0.0,0.0,91,0.00,,---,0.28,VWS V14.01,2013-05-12 03:52:00,
2013-05-11 23:57:00,46.5,44.0,29.69,SW,227,0.0,0.0,91,0.00,,---,0.28,VWS V14.01,2013-05-12 03:57:00,